TimeCST,TemperatureF,Dew PointF,Humidity,Sea Level PressureIn,VisibilityMPH,Wind Direction,Wind SpeedMPH,Gust SpeedMPH,PrecipitationIn,Events,Conditions,WindDirDegrees,DateUTC
12:03 AM,17.6,12.2,79,29.41,0.5,SSE,23.0,35.7,0.00,Fog-Snow,Snow,160,2014-02-13 06:03:00
12:23 AM,17.6,14.0,86,29.38,1.0,SSE,26.5,38.0,0.01,Snow,Light Snow,160,2014-02-13 06:23:00
12:30 AM,17.6,14.0,86,29.39,1.0,SSE,25.3,38.0,0.01,,Overcast,160,2014-02-13 06:30:00
12:38 AM,17.6,14.0,86,29.39,1.5,SSE,26.5,35.7,0.01,,Overcast,160,2014-02-13 06:38:00
12:53 AM,19.0,15.1,85,29.43,1.0,SSE,25.3,34.5,0.01,Snow,Light Snow,160,2014-02-13 06:53:00
1:00 AM,19.4,15.8,86,29.37,0.5,SSE,26.5,39.1,0.00,Fog-Snow,Snow,160,2014-02-13 07:00:00
1:13 AM,19.4,15.8,86,29.36,0.5,SSE,24.2,38.0,0.00,Fog-Snow,Snow,160,2014-02-13 07:13:00
1:35 AM,19.4,15.8,86,29.34,1.0,SSE,27.6,35.7,0.00,Snow,Light Snow,160,2014-02-13 07:35:00
1:48 AM,19.4,15.8,86,29.34,2.0,SSE,25.3,34.5,0.00,Snow,Light Snow,150,2014-02-13 07:48:00
1:49 AM,19.9,16.0,85,29.39,2.0,SSE,25.3,34.5,0.00,Snow,Light Snow,150,2014-02-13 07:49:00
2:01 AM,19.4,15.8,86,29.32,1.2,SSE,23.0,35.7,0.00,Snow,Light Snow,160,2014-02-13 08:01:00
2:16 AM,19.4,15.8,86,29.32,2.5,SSE,24.2,28.8,0.00,Snow,Light Snow,160,2014-02-13 08:16:00
2:35 AM,19.4,15.8,86,29.31,4.0,SSE,20.7,29.9,0.00,,Overcast,160,2014-02-13 08:35:00
2:53 AM,21.0,16.0,81,29.35,5.0,SSE,20.7,28.8,0.00,,Haze,160,2014-02-13 08:53:00
3:39 AM,21.2,17.6,86,29.29,2.5,South,11.5,-,0.00,Snow,Light Snow,180,2014-02-13 09:39:00
3:53 AM,23.0,19.0,85,29.34,3.0,South,10.4,-,0.00,Snow,Light Snow,180,2014-02-13 09:53:00
4:53 AM,27.0,21.9,81,29.35,9.0,West,20.7,26.5,0.00,,Overcast,280,2014-02-13 10:53:00
5:00 AM,26.6,21.2,80,29.31,6.0,WNW,25.3,-,0.00,Snow,Light Snow,300,2014-02-13 11:00:00
5:12 AM,26.6,21.2,80,29.32,2.0,WNW,27.6,33.4,0.00,Snow,Light Snow,300,2014-02-13 11:12:00
5:22 AM,23.0,19.4,86,29.34,1.0,NW,31.1,38.0,0.00,Snow,Light Snow,310,2014-02-13 11:22:00
5:33 AM,19.4,14.0,80,29.36,0.8,NW,32.2,42.6,0.00,Snow,Light Snow,310,2014-02-13 11:33:00
5:51 AM,17.6,12.2,79,29.38,1.2,NW,27.6,33.4,0.00,Snow,Light Snow,310,2014-02-13 11:51:00
5:53 AM,17.1,12.9,84,29.44,1.2,NW,27.6,35.7,0.00,Snow,Light Snow,320,2014-02-13 11:53:00
6:04 AM,17.6,12.2,79,29.40,0.8,NW,32.2,39.1,0.00,Snow,Light Snow,320,2014-02-13 12:04:00
6:13 AM,15.8,12.2,86,29.41,0.8,NW,29.9,40.3,0.00,Snow,Light Snow,320,2014-02-13 12:13:00
6:53 AM,12.9,9.0,84,29.54,0.8,NW,32.2,40.3,0.00,Snow,Light Snow,310,2014-02-13 12:53:00
7:00 AM,12.2,8.6,85,29.49,0.5,NW,38.0,44.9,0.00,Fog-Snow,Light Snow,320,2014-02-13 13:00:00
7:53 AM,9.0,5.0,84,29.62,0.5,NW,29.9,36.8,0.00,Fog-Snow,Light Snow,320,2014-02-13 13:53:00
8:17 AM,8.6,3.2,79,29.59,0.2,NW,25.3,36.8,0.00,Fog-Snow,Light Snow,320,2014-02-13 14:17:00
8:53 AM,8.1,3.0,80,29.69,0.2,NW,25.3,36.8,0.00,Snow,Heavy Snow,320,2014-02-13 14:53:00
9:24 AM,6.8,1.4,79,29.66,0.8,NNW,31.1,41.4,0.00,Snow,Light Snow,330,2014-02-13 15:24:00
9:53 AM,6.1,1.0,80,29.74,0.5,NW,33.4,38.0,0.00,Snow,Snow,320,2014-02-13 15:53:00
9:55 AM,6.8,1.4,79,29.68,0.2,NW,31.1,38.0,0.00,Snow,Heavy Snow,320,2014-02-13 15:55:00
10:03 AM,6.8,-0.4,72,29.68,0.5,NNW,31.1,41.4,0.00,Snow,Snow,330,2014-02-13 16:03:00
10:10 AM,6.8,-0.4,72,29.68,0.2,NNW,29.9,42.6,0.00,Snow,Heavy Snow,340,2014-02-13 16:10:00
10:26 AM,5.0,-0.4,78,29.68,0.5,NNW,31.1,-,0.00,Snow,Snow,330,2014-02-13 16:26:00
10:53 AM,5.0,-0.9,76,29.76,0.5,NNW,31.1,39.1,0.00,Snow,Snow,340,2014-02-13 16:53:00
11:28 AM,5.0,-0.4,78,29.72,1.0,NNW,26.5,-,0.00,Snow,Light Snow,330,2014-02-13 17:28:00
11:32 AM,5.0,-0.4,78,29.73,0.8,NNW,26.5,-,0.00,Snow,Light Snow,330,2014-02-13 17:32:00
11:39 AM,5.0,-2.2,72,29.73,1.5,NNW,24.2,-,0.00,Snow,Light Snow,330,2014-02-13 17:39:00
11:53 AM,5.0,-0.9,76,29.80,1.2,NW,24.2,32.2,0.00,Snow,Light Snow,320,2014-02-13 17:53:00
12:03 PM,5.0,-2.2,72,29.75,3.0,NNW,24.2,-,N/A,Snow,Light Snow,330,2014-02-13 18:03:00
12:07 PM,5.0,-2.2,72,29.75,1.8,NW,23.0,-,0.00,Snow,Light Snow,320,2014-02-13 18:07:00
12:24 PM,5.0,-0.4,78,29.74,0.8,NW,26.5,-,0.00,Snow,Light Snow,320,2014-02-13 18:24:00
12:35 PM,5.0,-2.2,72,29.76,2.0,NW,24.2,-,0.00,Snow,Light Snow,320,2014-02-13 18:35:00
12:44 PM,6.8,-2.2,67,29.76,4.0,NW,23.0,32.2,0.00,Snow,Light Snow,320,2014-02-13 18:44:00
12:53 PM,6.1,-0.9,73,29.82,1.8,NW,25.3,32.2,0.00,Snow,Light Snow,320,2014-02-13 18:53:00
1:36 PM,6.8,-2.2,67,29.76,2.0,NNW,24.2,32.2,0.00,Snow,Light Snow,330,2014-02-13 19:36:00
1:53 PM,6.1,-2.0,69,29.82,2.5,NNW,26.5,31.1,0.00,Snow,Light Snow,330,2014-02-13 19:53:00
2:04 PM,6.8,-2.2,67,29.76,4.0,NNW,26.5,31.1,0.00,Snow,Light Snow,330,2014-02-13 20:04:00
2:25 PM,6.8,-2.2,67,29.76,9.0,NNW,23.0,-,0.00,,Scattered Clouds,340,2014-02-13 20:25:00
2:40 PM,6.8,-2.2,67,29.77,6.0,NNW,23.0,-,0.00,,Mostly Cloudy,340,2014-02-13 20:40:00
2:53 PM,6.1,-0.9,73,29.83,4.0,NNW,21.9,-,0.00,Snow,Light Snow,340,2014-02-13 20:53:00
2:56 PM,6.8,-0.4,72,29.77,2.5,North,19.6,-,N/A,,Scattered Clouds,350,2014-02-13 20:56:00
3:06 PM,5.0,-2.2,72,29.78,9.0,NNW,21.9,-,0.00,,Scattered Clouds,340,2014-02-13 21:06:00
3:53 PM,5.0,-2.9,70,29.87,10.0,NNW,15.0,-,0.00,,Scattered Clouds,340,2014-02-13 21:53:00
4:53 PM,3.9,-4.0,70,29.87,10.0,North,15.0,-,N/A,,Clear,350,2014-02-13 22:53:00
5:53 PM,1.0,-6.0,72,29.88,10.0,North,9.2,-,N/A,,Clear,350,2014-02-13 23:53:00
6:53 PM,-0.0,-7.1,72,29.91,10.0,NNW,11.5,-,N/A,,Clear,330,2014-02-14 00:53:00
7:53 PM,-2.0,-8.0,76,29.92,10.0,North,9.2,-,N/A,,Clear,350,2014-02-14 01:53:00
8:53 PM,-2.0,-9.0,72,29.92,10.0,North,13.8,-,N/A,,Clear,360,2014-02-14 02:53:00
9:53 PM,-2.0,-9.0,72,29.94,10.0,NNW,11.5,-,N/A,,Clear,340,2014-02-14 03:53:00
10:53 PM,-2.9,-9.0,75,29.94,10.0,NNW,8.1,-,N/A,,Clear,340,2014-02-14 04:53:00
11:53 PM,-2.9,-9.9,72,29.96,10.0,NNW,11.5,-,N/A,,Clear,340,2014-02-14 05:53:00